Weather in Velikaya Glusha

Ukraine / Volyn Oblast     51°48′43″N   25°02′59″E
temp.,
°C
wind,
m/s
gust,
m/s
humid.,
%
clouds,
%
prec.,
mm/h
press.,
hPa
HPBL,
m
14 may, fri
fri1400:00+11se4897100 0.3 1003268
03:00+12sse5109598 0.3 1002381
06:00+11sse5997100 0.5 1002373
09:00+14s578312 0.7 1002517
12:00+17s576961 0.3 10031032
15:00+19s566287 1.3 10031379
18:00+17ssw357652 1.6 1003472
21:00+13sw348694 2.3 100345
15 may, sat
sat1500:00+11sw3894100 0.0 1005177
03:00+9sw359747 0.0 1005111
06:00+8sw349730 0.0 100676
09:00+12w4590100 0.0 1007544
12:00+12wnw5789100 0.0 1008606
15:00+14w5677100 0.1 1009883
18:00+16w566696 0.0 10091248
21:00+13wsw237182 0.0 100941
16 may, sun
sun1600:00+9sw12885 0.0 101010
03:00+9s33916 0.0 101139
06:00+9sse359251 0.0 101173
09:00+14sse5774100 0.0 1010360
12:00+19sse696258 0.0 10091424
15:00+21sse785245 0.2 10072202
18:00+19sse6969100 0.8 1006632
21:00+14sw4893100 4.9 1006285
17 may, mon
mon1700:00+13sse2396100 2.0 100682
03:00+12ssw3595100 2.6 1006166
06:00+11sw3698100 1.3 1006305
09:00+11wnw3795100 1.4 1008423
12:00+12wnw468697 0.1 1009454
15:00+18nnw355782 0.2 10081770
18:00+16wnw226885 0.1 100743
21:00+13sw22785 0.2 100813
18 may, tue
tue1800:00+11wsw4992100 0.1 1010174
03:00+12s359397 2.5 1010138
06:00+9sw34975 0.0 101088
09:00+13ssw237918 0.0 1010365
12:00+17sse2264100 0.1 10091136
15:00+13se1390100 1.4 1008156
18:00+13nne3396100 2.6 1007128
21:00+12nne4798100 5.9 1006344